Location: Długosiodło
(52.7596°N, 21.5938°E)
Time: 10:45:21
(UTC+02:00)

ISS - Visible Passes

Search period start: 22 September 2018 00:00
Search period end: 02 October 2018 00:00
Orbit: 403 x 408 km, 51.6° (Epoch: 22 September)

Date Brightness Start Highest point End Pass type
(mag) Time Alt. Az. Time Alt. Az. Time Alt. Az.
22 Sep -1.3 20:28:31 10° SSW 20:28:51 12° SSW 20:28:51 12° SSW visible
23 Sep -1.9 19:37:34 10° S 19:39:24 14° SE 19:39:34 14° SE visible
23 Sep -0.9 21:12:09 10° SW 21:12:17 11° SW 21:12:17 11° SW visible
24 Sep -2.7 20:20:30 10° SW 20:22:49 30° S 20:22:49 30° S visible
25 Sep -2.5 19:29:01 10° SSW 19:31:44 24° SSE 19:33:12 18° ESE visible
25 Sep -1.6 21:04:38 10° WSW 21:05:53 21° WSW 21:05:53 21° WSW visible
26 Sep -3.6 20:12:48 10° WSW 20:16:00 50° SSE 20:16:08 50° SSE visible
27 Sep -3.1 19:21:03 10° SW 19:24:09 38° SSE 19:26:17 17° E visible
27 Sep -2.1 20:57:09 10° W 20:58:58 29° WSW 20:58:58 29° WSW visible
28 Sep -3.8 20:05:14 10° WSW 20:08:31 67° S 20:09:02 55° ESE visible
28 Sep -0.4 21:41:39 10° W 21:41:42 10° W 21:41:42 10° W visible
29 Sep -3.6 19:13:20 10° WSW 19:16:35 55° SSE 19:19:03 16° E visible
29 Sep -2.3 20:49:41 10° W 20:51:43 34° W 20:51:43 34° W visible
30 Sep -3.9 19:57:43 10° W 20:01:01 74° S 20:01:42 52° ESE visible
30 Sep -0.5 21:34:11 10° W 21:34:21 11° W 21:34:21 11° W visible
01 Oct -3.7 19:05:44 10° WSW 19:09:02 70° S 19:11:39 15° E visible
01 Oct -2.4 20:42:10 10° W 20:44:18 35° WSW 20:44:18 35° WSW visible
